Location: Unspecified
(0.0000°N, 0.0000°E)
Time: 15:25:46
(UTC+00:00)

Envisat - Pass Details

Date: 23 February 2018
Orbit: 764 x 766 km, 98.2° (Epoch: 20 June)

Event Time Altitude Azimuth Distance (km) Brightness Sun altitude
Rises 19:06:49 0° 143° (SE) 3,229 6.0 -13.2°
Reaches altitude 10° 19:09:37 10° 128° (SE) 2,300 5.1 -13.9°
Enters shadow 19:12:24 21° 95° (E) 1,685 4.2 -14.6°
Exits shadow 19:16:07 15° 39° (NE) 1,972 4.7 -15.5°
Drops below altitude 10° 19:17:18 10° 28° (NNE) 2,292 5.1 -15.8°
Sets 19:20:03 0° 13° (NNE) 3,214 6.0 -16.4°
